Find Starlink 38266

NORAD ID: 100255 Int'l Des: 2026-181 Owner: SPXS Country: US Constellation: starlink operational

Current View

Loading 3D Globe...

About Starlink 38266

Starlink 38266 (NORAD 100255) is a starlink constellation satellite launched Aug 8, 2026 by SPXS of US. with a mass of 575.00 kg.

Upcoming Passes

Passes for default location (London). Set your location on the main map for personalized predictions.

Altitude History

Loading altitude history...

Two-Line Element Set

1 A0255U 26181K 26262.59694155 .00265705 00000-0 17168-2 0 9992
2 A0255 97.2844 306.0765 0001261 30.1239 330.0099 15.75332127 7819
Epoch: Sep 19, 2026 • Age: 26 hours

Current Status

Altitude 353.9 km
Apogee / Perigee N/A
Velocity 7.70 km/s
Sub-Earth Point 71.67°N, 36.87°E
Launch Date Aug 8, 2026
Age 0.1 years
Type internet

Technical Details

Classification Payload
Mass 575.00 kg
Dry Mass 530.00 kg
Length 0.30 m
Span 29.00 m
Shape ? Box + pan
Manufacturer SPXS
Bus Type Starlink V2MO
Phase Status In Orbit
Owner/State SPXS/US

Most Searched